Location: Recife
(8.0585°S, 34.8848°W)
Time: 11:10:36
(UTC-03:00)

SR - Pass Details

Date: 15 April 2026
Orbit: 568 x 852 km, 66.7° (Epoch: 12 May)

Event Time Altitude Azimuth Distance (km) Brightness Sun altitude
Rises 11:55:55 0° 199° (SSW) 2,778 ? 69.9°
Reaches altitude 10° 11:58:08 10° 198° (SSW) 1,871 ? 69.6°
Maximum altitude 12:02:18 81° 111° (ESE) 581 ? 69.1°
Drops below altitude 10° 12:06:30 10° 23° (NNE) 1,893 ? 68.6°
Sets 12:08:46 0° 22° (NNE) 2,815 ? 68.2°
